Location: Beverley
(50.2667°N, 107.9667°W)
Time: 14:01:02
(UTC+00:00)

XW-2A - Pass Details

Date: 28 June 2022
Orbit: 395 x 405 km, 97.2° (Epoch: 15 August)

Event Time Altitude Azimuth Distance (km) Brightness Sun altitude
Exits shadow 04:57:00 - 206° (SSW) 2,132 ? -10.4°
Reaches altitude 10° 04:59:03 10° 226° (SW) 1,445 ? -10.5°
Maximum altitude 05:01:05 16° 268° (W) 1,131 ? -10.7°
Drops below altitude 10° 05:03:08 10° 309° (NW) 1,451 ? -10.9°
Sets 05:05:39 0° 332° (NNW) 2,315 ? -11.1°
